Theta_e
311 310 310 310 308 308 307 306 306 306 305 304 304 304 304 303 303 303 303 303 302 302 302 303 303 302 301 301 300 300 300 300 300 300 300 299 300 300 300 300 300 300 300 300 300 300 300 300 300 300 300 300 300 299 299 299 299 299 299 298 298 298 298 297 297 297 297 297 297
310 310 309 309 308 307 306 305 305 305 305 305 304 304 303 303 303 303 303 303 303 303 303 303 302 301 300 300 300 300 299 299 299 299 299 299 299 299 299 300 300 300 299 299 299 299 299 300 299 299 299 299 299 299 299 299 299 299 298 298 298 298 297 297 297 297 297 297 297
309 308 308 307 306 306 305 304 304 304 304 304 304 304 304 303 303 303 303 303 303 302 302 301 300 300 300 299 299 299 299 299 299 299 299 299 299 299 299 299 299 299 299 299 299 299 299 299 299 299 299 299 299 299 299 299 299 298 298 298 298 298 297 297 297 297 297 297 297
308 308 306 306 306 305 305 304 304 304 304 304 304 304 304 303 303 303 303 302 302 301 301 300 299 299 299 299 299 299 300 299 299 299 298 298 298 298 299 299 299 299 299 299 299 299 299 299 299 299 299 299 299 299 299 298 298 298 298 298 298 297 297 297 297 297 297 297 297
308 307 307 306 306 306 306 305 305 304 304 304 304 304 303 303 303 302 302 301 301 300 300 299 299 299 299 299 299 299 299 299 299 299 299 298 298 298 299 299 299 299 299 299 299 299 299 299 299 299 299 299 298 298 298 299 298 298 298 298 298 297 297 296 297 297 297 297 297
308 308 307 307 307 306 306 305 305 305 305 305 304 303 303 302 302 301 301 300 301 300 300 300 300 300 300 300 299 299 299 299 299 299 299 298 298 298 298 299 299 299 299 299 299 299 299 299 299 299 299 299 298 298 299 299 298 298 297 298 298 298 297 297 297 297 297 297 297
308 308 307 307 306 306 305 305 305 305 305 304 303 303 302 302 301 301 301 301 301 301 301 301 300 300 299 299 299 298 299 299 299 299 299 298 298 298 298 298 298 299 299 299 299 299 299 299 299 299 298 298 298 298 298 299 298 297 297 297 297 298 298 297 297 297 297 297 297
308 307 307 306 306 305 305 305 305 304 304 304 303 302 302 302 301 301 301 301 301 301 301 301 300 299 299 298 298 298 299 299 298 298 298 298 298 298 298 298 298 298 299 299 299 299 299 299 298 298 298 298 298 298 298 298 298 297 296 296 297 297 298 298 298 298 297 297 297
306 306 306 305 305 305 305 305 305 304 304 303 303 302 302 302 301 301 301 301 301 301 300 300 299 299 298 298 298 298 298 298 298 298 298 298 298 298 298 298 298 298 298 299 299 299 298 298 298 298 298 298 298 298 298 298 297 296 296 296 297 297 298 298 298 298 298 297 297
305 305 305 305 305 305 305 305 305 304 304 303 303 302 302 302 302 301 301 301 300 300 299 299 298 298 298 298 298 298 297 297 297 297 297 298 298 297 297 298 298 298 298 298 299 298 298 298 298 298 298 298 298 297 297 297 297 296 296 296 296 296 297 297 298 298 298 298 297
305 305 305 305 305 305 305 305 304 304 304 303 303 302 302 302 301 301 300 300 299 299 298 298 298 298 298 297 297 297 297 297 297 297 297 297 298 298 298 298 298 298 298 298 298 298 298 298 297 297 297 298 298 297 297 297 296 296 296 296 296 296 296 297 298 298 298 298 298
305 305 305 305 305 305 305 304 304 303 303 303 302 302 301 301 301 301 300 299 298 298 298 298 298 298 297 297 297 297 297 297 297 297 297 297 298 298 298 298 298 298 298 298 298 298 298 297 297 297 297 297 298 298 297 297 296 296 296 296 296 296 296 297 298 298 299 299 298
305 305 305 305 305 305 305 304 303 303 303 302 302 301 301 301 300 300 299 298 298 297 297 298 298 298 297 297 297 297 297 297 297 297 297 298 298 298 298 298 298 298 297 298 298 298 297 297 297 296 296 296 297 297 297 297 297 296 296 296 296 296 297 297 298 298 299 299 298
305 305 305 305 305 304 304 303 303 302 302 301 301 301 300 299 299 299 298 297 297 297 297 297 298 298 298 297 297 297 297 297 297 297 297 298 298 298 297 298 298 297 297 297 298 297 297 297 296 296 296 296 297 297 297 297 297 296 296 296 296 296 297 297 298 298 298 298 298
304 304 304 304 304 303 303 302 302 301 301 300 300 299 299 298 298 298 298 297 297 297 297 297 297 298 298 297 297 297 297 297 297 297 297 297 298 298 297 297 297 297 297 297 297 297 297 297 296 296 296 296 296 297 297 297 297 297 296 296 296 297 297 297 298 298 298 298 298
303 303 303 303 302 302 301 301 300 300 299 299 298 298 298 297 298 298 298 297 297 297 297 297 297 297 298 298 297 297 297 297 298 298 298 298 298 298 297 297 297 297 297 297 297 297 297 297 297 297 297 297 297 297 297 297 297 297 297 297 297 297 297 298 298 298 298 298 297
302 302 302 302 301 301 300 300 299 299 298 298 298 297 298 297 298 298 298 297 297 297 297 297 297 297 298 298 298 298 298 298 298 298 298 298 298 298 297 298 297 298 297 297 297 297 297 298 298 298 298 297 297 297 297 297 297 297 297 297 298 298 298 298 298 298 298 298 298
302 302 302 301 301 300 300 299 299 298 298 298 298 298 298 298 297 297 298 298 297 297 297 297 297 298 298 298 298 298 298 298 298 298 298 298 298 298 298 298 298 298 298 297 297 297 297 298 298 298 298 298 298 298 298 298 297 297 298 298 298 298 298 299 298 298 298 298 298
302 301 301 301 300 300 299 299 298 298 298 298 298 298 298 298 297 297 298 298 297 297 297 297 298 298 298 298 298 298 299 298 298 298 298 298 298 298 298 298 298 298 298 297 297 297 297 298 298 298 298 298 298 298 298 298 298 299 299 299 299 299 299 299 299 299 299 298 298
301 301 301 301 300 300 299 299 299 298 298 298 298 298 298 298 298 298 297 298 298 298 298 298 298 298 298 299 299 299 299 299 298 298 298 298 298 298 298 298 298 298 298 298 298 298 298 298 298 298 298 298 298 298 299 299 299 299 299 299 299 299 299 300 300 299 299 298 298
301 301 301 300 300 300 300 299 299 299 298 298 298 298 298 298 298 298 298 298 299 299 299 299 299 299 299 299 299 299 299 299 299 299 299 299 298 298 298 298 298 298 298 298 298 298 298 298 298 298 298 298 299 299 299 300 300 300 300 300 300 300 300 300 300 300 299 299 299
301 301 301 300 300 300 300 300 299 299 299 299 299 299 299 299 299 299 299 300 300 300 300 300 300 299 299 299 299 299 299 299 299 299 299 299 299 299 299 299 299 298 298 298 298 299 299 299 299 299 299 299 299 300 300 300 300 300 300 300 300 300 300 301 301 301 300 300 300
301 301 301 301 300 300 300 300 299 299 299 299 299 299 299 299 299 300 300 300 300 300 300 300 300 300 300 300 300 299 299 299 299 299 299 299 299 299 299 299 299 298 298 299 299 299 299 299 299 299 300 300 300 300 300 300 300 300 300 300 300 301 301 301 302 302 301 301 301
301 301 301 301 301 301 300 300 299 299 299 299 299 299 299 299 300 300 300 300 300 300 300 300 301 301 301 300 300 299 299 299 299 299 299 299 299 299 299 299 299 299 299 300 300 300 300 299 299 299 300 300 300 301 301 301 300 300 300 300 300 301 301 301 302 302 302 302 302
301 301 301 301 301 300 300 300 299 299 299 299 299 299 299 300 300 300 300 300 300 300 300 300 301 301 301 300 300 299 299 299 298 298 299 299 299 299 299 299 299 300 300 300 300 299 299 299 299 300 300 300 300 301 301 301 301 301 301 301 301 301 301 301 302 302 302 302 302
301 301 301 301 301 300 300 300 299 299 299 300 300 300 300 300 300 300 300 300 300 300 300 300 300 300 300 300 300 299 299 299 299 299 298 298 298 299 299 299 300 301 301 300 299 299 299 300 300 300 300 300 301 300 300 301 301 301 301 301 302 302 301 301 301 301 301 300 300
301 301 301 301 300 300 300 300 300 300 300 300 300 300 300 300 300 300 300 299 299 300 300 300 300 300 300 300 299 299 299 299 299 299 298 298 298 298 299 299 300 301 301 300 300 300 300 300 300 300 301 301 300 301 300 300 301 302 302 302 302 302 301 301 300 300 300 300 300
300 300 300 300 300 300 299 300 300 300 300 300 300 300 300 300 300 299 299 299 299 300 300 300 300 301 300 300 299 299 299 299 300 299 299 299 299 299 299 299 300 300 300 299 299 299 300 300 300 301 301 301 301 301 301 301 302 302 302 301 301 301 300 300 299 299 298 298 299
300 300 300 299 299 299 300 300 300 300 300 300 300 300 300 300 299 299 299 299 299 300 300 300 300 300 300 300 300 300 300 300 300 300 300 299 299 299 299 299 300 300 300 299 299 299 299 300 301 301 301 301 301 300 301 301 301 301 300 300 300 299 299 299 299 298 298 298 298
300 299 299 299 299 299 300 300 300 300 300 301 300 300 300 300 299 299 299 299 299 300 300 301 301 300 300 300 300 300 300 300 300 300 300 299 299 299 299 299 299 300 299 299 299 299 299 300 300 301 301 301 300 300 300 301 300 300 299 299 299 299 299 299 298 298 298 298 297
300 299 299 299 299 300 300 300 300 301 300 300 300 300 300 299 299 299 299 299 300 300 301 301 301 300 300 300 300 300 300 300 300 300 300 299 299 299 299 299 299 299 299 298 298 299 299 300 300 300 300 300 300 300 300 300 300 299 299 299 299 299 298 298 298 298 298 297 297
300 300 300 300 300 300 300 301 300 300 300 300 300 300 299 299 299 300 300 300 300 301 301 301 300 300 300 300 300 300 300 300 300 300 300 299 299 299 299 299 299 299 299 298 298 298 299 299 300 300 300 300 299 299 300 300 299 299 299 299 299 299 298 298 298 298 297 297 297
300 300 300 300 300 300 300 300 300 300 300 300 300 300 300 300 300 300 301 301 301 301 300 300 300 300 300 300 300 300 300 300 300 300 299 299 299 299 298 298 299 299 299 298 298 298 298 299 299 299 300 300 299 299 299 299 299 299 298 299 298 298 298 298 297 297 298 297 297
301 300 301 300 301 301 301 301 301 301 300 300 300 300 300 300 300 300 300 301 301 301 301 301 301 300 300 300 300 300 300 300 300 300 299 299 299 298 298 298 299 299 299 298 298 298 298 298 299 299 300 300 299 298 298 298 298 298 298 298 298 298 298 298 298 298 298 298 298
301 301 301 301 301 301 301 301 301 301 300 300 300 300 300 301 300 301 301 301 301 301 301 301 301 301 301 301 300 300 300 299 299 299 299 299 298 298 298 298 299 299 298 298 298 298 298 298 299 299 299 299 298 298 298 298 298 298 298 298 297 298 298 298 298 299 299 299 299
301 301 301 301 301 301 301 301 301 300 300 300 300 300 301 301 301 301 301 302 301 301 300 300 301 301 300 300 300 300 300 299 299 299 298 298 298 297 297 297 298 298 298 298 298 298 298 298 298 298 298 298 298 298 298 298 298 298 297 297 297 298 298 298 299 300 300 300 300
301 301 301 301 301 301 301 301 301 300 300 300 300 300 301 301 301 302 302 302 301 301 300 300 300 300 300 300 300 300 300 300 299 299 298 298 297 297 297 297 297 298 298 298 298 297 298 298 298 298 298 297 297 297 297 298 297 297 297 297 297 298 298 299 300 300 300 300 300
301 301 301 301 301 301 302 302 301 300 300 300 300 301 301 301 301 302 302 302 301 300 300 300 300 300 300 300 300 300 300 300 300 299 298 298 297 297 297 296 297 297 298 298 298 297 297 298 298 298 297 297 297 297 297 297 297 297 297 297 297 298 299 300 300 300 300 300 301
301 301 301 301 302 302 302 301 301 301 300 301 301 301 301 301 302 302 302 302 301 301 300 300 300 300 301 301 300 300 300 300 300 299 298 298 297 297 297 296 296 297 298 298 297 297 297 297 297 297 297 297 297 297 297 297 296 297 297 297 297 298 298 300 300 300 300 300 301
302 302 302 301 302 302 302 302 301 301 301 301 301 301 301 302 302 302 302 302 302 301 301 300 301 301 301 301 300 300 299 299 299 299 299 298 298 298 297 297 296 297 297 297 297 297 297 297 297 298 298 297 297 297 296 296 296 296 296 296 296 297 297 299 300 300 300 300 301
302 302 302 302 302 302 302 301 301 302 302 302 301 302 302 302 302 302 302 302 301 301 301 300 301 301 301 301 300 299 299 299 299 299 299 298 298 298 297 297 296 296 297 297 297 297 297 297 297 298 298 297 297 297 296 296 296 295 296 296 296 296 297 298 298 299 300 300 301
Wind_Speed
8 7 6 6 6 6 5 5 6 6 6 6 7 7 7 7 7 6 6 6 7 7 6 5 4 4 5 6 6 5 5 4 4 3 2 1 0 1 2 2 1 1 1 1 1 2 2 2 1 1 1 1 1 1 1 1 2 2 2 2 1 2 2 2 2 2 2 2 1
9 8 8 8 7 7 6 6 6 6 6 6 6 6 6 6 6 6 6 7 6 6 6 5 5 5 6 7 6 5 5 5 4 4 3 2 1 0 1 2 2 1 1 1 2 2 2 2 2 1 1 1 2 1 0 1 1 2 2 2 1 1 2 2 2 2 2 2 2
9 8 8 8 8 7 7 6 7 7 7 6 6 6 6 6 6 6 7 7 7 6 5 4 5 6 7 6 5 4 4 4 4 4 4 3 3 2 1 2 2 2 2 2 2 2 2 2 2 2 2 2 2 1 0 1 1 1 2 2 2 1 1 2 2 2 2 2 2
9 9 9 9 10 9 8 7 8 8 8 6 6 6 6 5 6 7 7 8 7 6 5 4 5 5 5 5 4 4 3 4 4 4 4 4 3 3 3 3 3 2 2 2 2 2 3 3 2 2 2 2 2 1 1 1 1 1 2 2 2 2 2 2 2 2 2 2 2
10 9 9 9 11 10 9 8 9 9 7 6 6 6 6 6 6 7 7 7 6 5 5 5 5 5 4 4 4 4 4 4 4 4 3 4 3 3 4 4 4 3 2 2 2 3 3 3 2 2 2 2 2 2 2 2 2 2 1 1 1 1 1 2 2 2 2 2 2
10 10 10 10 11 10 9 8 9 9 7 6 7 7 7 6 7 7 7 7 6 6 6 6 5 5 5 5 4 4 4 4 3 3 3 3 3 3 4 4 3 3 2 2 3 3 3 3 2 2 2 1 1 1 2 2 2 2 2 2 1 1 1 1 2 2 2 2 3
11 11 11 11 11 10 9 9 9 8 8 7 9 9 9 8 8 9 8 7 6 6 6 5 5 5 5 5 5 5 4 4 3 3 3 3 3 4 4 4 3 3 3 3 3 3 3 3 2 2 2 1 1 1 1 1 2 2 2 2 2 1 1 1 1 2 2 3 4
10 10 11 11 11 11 11 10 9 8 7 7 9 10 11 11 11 10 9 7 6 6 6 5 6 6 6 6 5 5 5 5 4 4 4 3 4 4 4 4 4 4 3 3 3 3 2 2 2 2 2 1 1 2 2 2 2 2 3 3 3 2 2 1 1 2 2 4 5
9 10 10 10 10 11 11 10 10 9 9 9 10 11 11 11 11 10 9 7 7 7 6 6 7 7 7 6 6 6 5 5 5 4 4 4 4 4 4 4 4 4 4 3 3 3 2 2 2 2 2 2 2 2 3 3 3 3 3 3 3 3 2 2 2 3 3 4 5
10 10 10 10 11 11 10 10 10 10 11 11 11 11 11 11 10 9 8 7 7 7 7 7 7 7 7 7 6 6 5 5 5 5 5 5 5 5 5 4 4 4 3 2 2 2 2 2 2 2 2 3 3 3 4 4 4 4 4 3 3 4 4 4 4 4 4 4 5
11 11 10 10 10 10 10 10 9 9 10 10 11 11 10 10 9 8 8 7 7 7 7 7 7 7 7 6 6 6 5 5 5 5 5 5 5 5 5 4 4 3 3 2 1 1 2 2 3 3 4 4 4 4 4 4 4 4 4 4 4 5 5 5 5 5 5 5 5
11 11 10 10 10 10 10 9 8 9 9 10 10 10 9 9 9 8 8 8 8 7 7 7 7 7 6 5 5 5 5 5 5 5 5 5 5 4 4 4 3 3 3 2 2 1 2 3 4 4 5 5 4 4 4 4 4 5 5 5 5 5 6 6 5 5 4 4 4
11 11 10 10 10 10 10 9 8 8 9 10 10 9 8 8 8 8 8 8 8 7 6 6 6 6 5 5 5 5 4 4 4 4 4 4 4 4 4 3 3 3 3 2 2 2 3 4 4 5 5 5 4 4 4 5 5 5 5 6 6 6 6 6 5 4 4 4 4
11 11 10 10 10 10 9 9 8 8 8 9 9 8 8 8 8 8 8 8 7 7 6 5 5 5 5 5 5 4 4 4 4 4 4 4 4 4 3 3 3 3 3 3 3 3 4 4 5 5 5 5 5 5 5 5 5 5 5 6 6 6 6 5 5 5 4 4 4
11 10 10 10 10 9 8 8 7 8 8 9 8 8 8 7 7 7 7 7 7 7 6 5 4 4 5 5 5 5 5 4 4 5 5 4 4 4 4 3 3 3 3 3 4 4 4 5 5 5 5 5 6 6 6 6 5 5 5 6 6 6 6 5 5 5 5 5 5
10 10 10 10 9 9 8 8 7 7 8 8 8 8 7 7 7 7 7 7 7 6 5 5 5 4 4 5 5 5 5 5 4 4 4 4 4 4 4 4 4 4 4 4 4 5 5 5 5 5 5 5 6 6 6 6 6 6 6 6 6 6 6 6 5 5 5 5 5
10 10 10 10 9 9 8 8 7 7 8 8 8 8 7 7 6 7 7 7 6 6 6 6 5 5 4 4 4 4 4 4 4 4 4 4 4 4 4 4 4 4 5 5 5 5 5 5 5 5 5 5 5 6 6 6 6 6 6 6 6 6 6 6 6 5 5 5 6
10 10 9 9 9 9 9 9 8 8 9 9 8 8 7 7 7 7 7 7 7 7 7 7 6 5 5 5 4 4 3 3 3 3 3 3 4 4 4 4 4 4 5 5 5 6 6 6 5 5 5 5 5 6 6 6 6 6 6 6 6 6 6 6 6 5 5 5 6
10 10 10 10 10 10 10 10 10 9 9 9 9 8 8 8 8 7 7 7 7 7 7 7 6 6 5 5 5 4 3 3 3 3 3 3 3 4 4 4 5 5 5 5 5 6 6 6 6 6 5 5 5 6 6 6 6 6 6 6 6 6 6 6 6 5 5 5 6
10 10 10 10 10 10 10 10 10 10 9 9 9 9 9 9 8 8 8 8 8 8 7 7 6 6 5 5 5 4 3 2 3 3 3 3 4 4 4 5 5 5 5 5 5 6 6 6 6 6 6 6 6 6 6 6 6 6 6 6 6 6 7 6 6 5 5 6 7
10 10 10 10 10 10 10 10 10 10 10 9 10 9 9 9 9 8 8 8 8 7 7 6 6 5 5 4 4 3 3 2 2 3 4 4 4 5 5 5 5 5 5 5 5 6 5 5 5 5 6 6 6 6 6 6 6 6 6 6 6 7 7 6 5 5 5 6 7
10 10 10 10 10 10 10 10 10 10 10 10 10 9 9 9 9 8 8 7 7 7 6 5 5 4 4 3 3 3 3 2 3 3 4 4 4 5 5 4 5 5 5 5 5 5 5 5 5 6 6 6 7 7 7 6 6 6 7 7 7 7 6 5 5 4 5 5 6
10 10 9 9 10 10 10 10 10 10 9 9 9 9 9 9 8 8 7 7 6 6 5 5 4 4 3 3 3 3 3 3 4 4 4 5 5 5 4 4 5 5 5 5 4 4 4 4 5 6 6 7 7 7 7 7 6 6 7 7 7 7 6 5 4 4 5 5 6
10 9 9 8 9 9 9 9 9 9 9 9 9 9 9 8 8 8 7 7 6 6 5 4 4 3 3 3 3 3 4 4 4 5 5 5 5 5 4 4 4 5 4 3 3 3 3 4 5 6 7 7 7 7 7 7 7 7 7 7 7 6 6 6 5 5 6 6 6
10 9 9 8 9 9 9 9 9 9 9 9 9 9 8 8 8 8 7 7 7 6 6 5 4 4 3 3 3 3 4 4 4 4 4 4 4 4 4 4 4 4 3 2 1 2 3 4 5 5 6 6 7 7 7 7 7 7 7 6 6 6 6 7 6 7 7 7 7
9 9 9 9 9 9 9 9 9 9 9 9 9 8 8 8 8 7 7 7 7 6 6 5 4 4 3 3 4 4 4 4 4 4 4 4 4 4 4 4 3 3 2 2 2 2 4 6 6 7 6 6 7 7 7 7 7 7 6 6 6 6 6 6 7 8 8 8 8
8 8 8 8 8 9 9 9 9 9 9 9 9 8 8 8 7 7 7 7 6 6 5 5 4 4 4 4 4 5 5 4 4 3 3 4 4 4 4 4 3 3 2 1 2 3 5 7 7 8 8 7 7 7 7 7 7 7 6 6 6 6 6 7 8 8 8 8 7
8 8 8 8 8 9 9 9 9 9 9 9 8 8 8 8 7 7 7 7 6 6 5 5 4 4 3 4 4 5 5 4 3 3 3 3 4 4 4 4 4 3 2 1 2 3 5 7 8 8 8 8 7 6 6 6 6 6 6 6 6 7 7 8 7 7 7 7 6
8 8 8 9 9 9 9 9 9 9 9 9 8 8 8 8 7 7 7 7 7 6 5 4 4 4 4 4 4 5 4 4 3 3 3 3 4 4 4 5 4 2 0 1 1 3 5 7 8 9 9 8 6 5 5 5 5 5 5 5 6 6 7 6 6 6 6 7 6
9 9 9 9 9 9 9 9 9 9 9 8 8 8 8 8 7 7 7 7 7 6 5 5 4 4 5 5 5 4 4 4 3 3 3 4 4 4 4 4 4 2 0 0 1 3 6 7 8 8 8 9 7 6 5 5 5 6 6 5 6 6 7 7 7 7 7 7 7
10 10 10 10 10 10 9 9 9 9 9 8 8 8 8 8 8 8 7 7 7 6 6 6 5 5 5 5 5 4 4 3 3 3 3 3 4 4 4 5 4 3 1 0 2 4 6 7 8 8 8 8 7 6 5 5 6 6 6 6 6 6 6 6 7 7 8 8 7
10 10 10 10 10 10 10 9 9 9 9 9 9 9 8 8 8 8 7 7 7 6 6 6 6 6 6 6 5 5 4 3 3 3 3 3 3 4 4 5 4 3 1 0 2 4 6 7 8 8 8 8 7 7 6 7 7 6 6 6 6 6 6 6 6 7 8 7 7
11 11 10 10 10 10 10 10 9 9 9 9 9 9 8 8 8 7 7 7 6 6 6 6 6 6 6 6 5 4 4 3 2 3 3 3 4 4 4 4 4 2 1 1 2 4 5 7 7 8 8 9 8 7 7 7 6 6 6 6 6 6 7 7 7 7 7 7 7
11 11 11 10 10 10 10 10 9 9 9 9 9 9 8 8 8 7 7 6 6 6 6 6 6 6 5 5 4 3 3 2 3 3 3 3 4 4 4 4 3 2 1 2 3 4 5 6 7 8 9 9 8 7 7 8 6 6 5 6 6 6 6 7 7 7 8 8 7
12 11 11 11 10 10 10 10 10 9 9 9 9 9 8 8 8 8 7 7 6 6 5 5 5 5 5 4 4 3 3 3 3 3 3 3 4 4 5 5 3 2 2 2 2 4 5 6 7 8 8 8 7 7 7 7 7 6 6 6 6 7 7 7 7 8 8 8 8
12 12 11 11 11 11 10 10 10 10 9 9 9 8 8 8 8 7 7 7 6 6 6 6 5 5 5 5 4 4 4 4 4 3 3 3 4 4 5 5 4 3 2 2 2 3 5 6 7 8 8 7 6 6 6 6 6 6 6 6 6 7 7 8 8 8 8 8 7
12 12 12 11 11 11 11 11 10 10 10 9 9 8 8 8 8 7 7 6 6 6 6 6 6 6 6 5 5 4 4 3 3 3 3 4 4 5 5 5 5 4 3 2 2 3 4 6 7 7 7 6 6 6 6 6 5 5 6 6 6 7 7 7 8 8 8 7 7
13 12 12 12 11 11 11 11 10 10 10 9 9 9 8 8 7 7 7 6 6 6 6 6 6 6 6 5 5 4 4 3 3 4 4 4 4 4 5 5 5 4 3 2 2 3 4 6 7 7 7 6 6 6 6 5 5 5 5 5 5 6 7 7 6 7 7 7 7
13 13 12 12 12 11 11 11 11 10 10 9 9 9 8 8 7 7 6 6 6 6 6 6 6 6 5 5 4 4 4 4 4 4 4 4 4 4 4 5 5 5 4 3 3 4 5 6 7 7 7 7 6 6 5 5 5 5 5 5 5 6 7 7 6 6 6 7 8
13 13 12 12 12 11 11 11 11 10 10 9 9 9 9 8 7 7 6 6 6 6 6 6 6 6 5 4 4 4 4 4 4 4 5 5 4 4 4 5 5 6 5 5 4 4 5 6 7 7 7 6 6 6 5 5 5 5 5 5 5 6 6 7 6 6 6 6 7
13 13 13 12 12 11 11 11 11 10 10 9 9 9 8 8 7 7 6 6 6 6 5 5 5 5 4 3 3 4 4 5 5 5 5 5 5 4 4 5 6 6 6 5 5 5 5 6 7 7 7 6 6 5 5 5 5 5 5 5 5 5 6 6 6 6 5 5 5
Wind_Direction
115 110 107 111 109 108 107 108 110 112 113 115 115 115 115 114 114 114 114 109 106 107 109 112 124 146 166 175 170 164 156 148 141 137 136 133 53 350 342 333 335 346 357 359 336 318 308 309 317 319 317 310 301 307 347 12 354 341 332 328 335 341 341 330 320 320 322 328 336
113 109 105 106 105 104 103 103 105 106 106 107 110 113 116 118 118 116 112 105 104 107 111 119 142 162 172 173 167 159 151 143 142 144 146 145 138 78 324 309 311 319 321 314 301 299 299 300 300 296 288 278 270 260 237 62 356 329 317 316 330 338 337 327 325 331 336 340 338
111 108 105 104 105 106 106 106 107 108 108 107 110 114 117 119 117 112 107 103 103 106 114 132 155 165 168 164 158 151 148 148 153 155 156 156 161 175 204 247 260 270 276 281 287 293 298 300 300 294 284 274 270 265 250 81 354 321 317 324 337 341 337 329 334 342 349 348 332
111 109 108 108 109 110 111 112 114 115 115 115 116 116 115 114 110 106 103 103 105 110 123 145 156 160 159 154 150 151 159 172 170 169 166 165 174 183 195 211 222 233 246 266 279 287 293 295 294 290 285 285 291 303 335 14 344 329 324 331 337 337 334 334 340 348 353 346 329
114 115 115 115 116 116 116 118 122 123 123 122 121 118 113 107 104 103 104 108 115 125 138 148 150 152 154 154 157 166 178 190 182 176 172 173 181 192 202 209 213 220 232 250 267 278 284 287 284 283 286 299 311 329 343 349 335 326 319 314 317 323 330 334 342 346 347 338 314
121 122 122 121 122 122 122 124 126 127 126 123 120 117 111 105 106 109 114 119 126 134 141 148 149 153 158 163 172 180 187 193 184 180 179 180 187 204 217 222 221 224 232 245 255 263 270 278 276 278 284 299 310 320 332 336 326 318 310 298 294 300 315 327 337 339 329 308 289
125 127 127 127 127 127 126 127 126 124 121 118 117 116 115 113 115 118 122 125 130 138 145 152 156 160 164 169 178 184 187 184 179 182 188 189 196 208 220 228 231 234 239 247 252 255 261 273 278 283 288 299 301 302 301 301 301 302 302 300 300 302 310 319 327 324 308 293 284
120 123 124 125 126 126 126 126 124 122 119 117 118 119 119 120 122 124 126 129 136 145 152 156 163 166 168 171 178 181 181 176 177 184 192 200 205 213 220 227 232 235 239 246 257 266 274 283 289 294 300 307 298 290 283 279 282 289 295 300 300 300 299 298 295 287 281 277 274
111 113 115 116 118 120 121 122 121 120 119 118 119 121 122 123 126 128 131 136 144 150 155 158 164 166 168 172 176 177 177 176 180 186 194 203 211 215 220 226 231 234 235 238 256 272 283 290 290 294 299 300 290 286 284 284 285 288 292 294 292 289 283 271 259 254 254 258 262
109 110 111 112 114 115 116 116 115 115 116 117 119 121 123 126 130 133 138 142 147 152 155 158 160 163 167 173 175 176 177 180 185 190 196 203 212 215 218 222 231 235 235 233 254 277 293 296 290 286 281 278 279 282 285 288 290 291 289 288 284 279 274 264 253 246 243 244 252
110 112 113 114 115 115 114 113 112 113 114 117 121 124 127 131 135 138 141 143 145 149 152 153 156 161 167 173 176 177 179 183 190 195 199 205 212 216 219 224 234 241 245 243 260 284 298 294 286 279 274 270 274 279 282 283 284 283 280 274 272 269 266 259 251 244 239 238 247
113 114 115 117 118 118 116 115 115 116 119 122 126 129 132 135 139 141 140 140 142 144 145 147 155 161 167 173 177 180 182 187 193 199 204 208 214 219 224 232 239 247 253 255 260 271 278 278 277 274 273 272 272 274 275 276 275 274 271 267 263 260 258 256 250 244 239 238 249
116 117 118 120 121 121 120 119 119 122 125 128 130 132 133 136 138 138 137 138 138 137 139 145 155 162 168 173 178 181 185 191 198 204 209 212 216 221 228 236 242 248 253 257 258 261 266 271 274 276 278 279 278 276 275 274 272 270 269 266 261 258 257 258 257 255 253 250 257
117 119 121 124 125 124 123 122 123 126 129 130 130 131 131 134 136 136 135 135 134 134 137 146 157 166 172 175 178 183 188 194 203 210 214 215 216 220 227 235 240 245 251 255 257 259 263 268 273 278 282 284 283 281 279 276 272 269 267 266 264 263 263 266 270 273 275 275 277
119 122 125 127 127 126 125 124 124 127 129 130 130 131 132 134 136 135 133 133 133 135 141 150 161 170 176 179 182 186 192 199 208 214 218 219 218 221 228 237 242 246 250 254 255 257 261 266 270 275 280 284 285 285 283 279 274 269 265 265 266 268 271 275 280 285 289 293 298
124 127 130 131 130 128 126 126 125 127 130 130 131 132 133 134 134 134 134 134 135 140 148 158 165 172 180 185 188 193 198 205 212 219 224 226 225 228 233 242 248 252 254 255 256 256 257 259 263 268 273 278 281 283 282 281 276 271 267 265 266 269 272 276 282 288 294 301 305
128 130 132 131 130 128 127 126 126 128 130 131 133 133 133 132 133 136 139 140 143 149 158 165 168 173 179 186 192 199 206 211 218 224 231 235 235 238 242 248 252 255 257 259 261 260 259 258 258 261 265 270 273 276 277 277 275 272 269 266 266 267 269 273 279 286 294 302 304
129 131 131 131 130 129 129 129 129 131 133 134 134 133 133 134 137 140 143 147 151 157 163 168 170 174 179 186 192 201 211 218 224 230 237 244 248 252 254 255 255 257 258 261 264 266 267 267 266 266 267 268 270 271 272 272 272 270 269 267 266 267 268 271 276 284 293 300 299
132 134 134 134 134 133 133 132 133 134 135 136 135 136 137 140 142 145 148 153 159 164 167 169 172 176 182 187 190 197 209 222 232 238 244 250 256 260 261 261 258 257 258 260 262 266 269 272 273 274 274 273 273 273 273 272 272 271 271 270 271 271 272 273 277 285 294 300 296
137 138 138 137 137 136 136 136 136 137 138 138 139 140 142 145 147 150 154 159 165 169 172 172 174 178 183 187 189 194 203 221 240 249 252 253 255 257 257 258 257 257 257 258 261 264 268 271 276 279 280 281 280 279 279 278 278 279 280 280 280 279 278 276 277 283 289 292 289
139 139 139 139 139 139 139 139 140 141 142 142 144 145 148 151 154 157 160 164 168 172 173 174 176 178 181 186 191 197 206 221 243 253 257 255 253 252 252 254 257 258 259 260 263 267 271 278 284 288 288 287 284 281 280 280 283 285 286 286 285 283 280 277 275 274 275 276 280
138 138 139 139 140 140 140 141 142 144 145 146 148 150 153 156 159 160 162 165 169 172 173 174 177 178 180 186 199 210 216 223 236 246 252 254 252 251 250 252 257 261 264 265 269 275 283 293 296 294 289 284 280 278 278 279 281 281 280 279 280 280 280 278 270 265 262 264 269
138 138 139 140 141 141 141 142 144 145 147 149 151 154 157 160 160 160 161 164 168 171 172 173 179 183 188 194 210 222 228 231 234 237 241 245 249 250 250 250 256 261 265 270 279 292 305 312 306 298 292 287 285 285 284 283 280 277 275 275 277 281 285 287 281 272 265 263 263
139 140 141 142 143 143 143 144 146 148 150 153 155 158 159 161 161 161 162 166 171 174 175 175 177 184 194 208 221 232 240 243 242 240 239 240 244 248 250 251 254 257 261 265 283 308 320 317 308 303 300 300 300 299 297 293 288 284 282 283 289 294 299 302 298 291 283 275 268
142 143 144 146 146 147 147 149 151 153 155 157 159 161 163 164 164 165 167 171 175 177 180 180 178 181 195 216 227 235 242 248 251 252 252 251 251 253 255 257 257 259 259 259 284 308 309 303 299 300 302 304 302 300 296 292 288 288 292 299 306 308 307 304 299 293 286 277 269
144 146 147 149 150 151 152 154 156 157 159 160 163 165 167 168 168 170 172 174 178 181 183 185 183 187 197 217 226 231 234 239 248 256 263 269 271 272 271 268 268 268 271 283 310 310 301 294 291 292 294 294 293 292 291 289 293 299 305 311 310 305 299 293 288 282 277 272 269
147 149 151 152 154 156 157 158 159 160 162 164 167 169 171 171 172 174 176 179 181 184 187 191 192 196 204 220 228 230 229 228 235 246 260 272 280 283 282 279 275 272 274 299 310 304 297 293 290 288 287 287 290 293 298 303 310 314 314 310 302 294 286 281 277 275 274 274 276
152 153 155 157 159 160 160 162 163 165 166 168 171 172 173 174 176 178 181 184 186 187 190 194 197 201 210 223 229 231 231 228 232 242 257 270 277 279 279 277 271 267 266 287 295 294 294 292 291 289 288 289 293 298 303 308 311 310 305 298 291 284 279 277 278 281 284 289 292
158 159 160 162 164 164 165 167 169 169 170 172 174 175 177 179 181 184 187 191 191 191 192 195 197 203 213 222 227 229 230 229 229 236 250 262 268 271 272 273 273 269 231 108 291 292 292 291 290 291 293 298 300 302 303 304 302 298 294 289 284 282 283 286 291 296 298 299 298
164 165 166 168 169 169 170 172 173 173 173 174 176 178 180 183 187 191 195 197 195 195 195 197 201 208 216 223 225 227 227 225 222 228 242 259 269 275 279 281 284 289 313 92 292 291 291 290 291 293 297 302 303 301 299 296 293 291 288 286 287 291 297 302 303 302 300 298 295
170 170 171 173 173 173 173 174 175 176 176 177 179 181 184 189 193 196 200 201 199 199 199 202 206 214 222 228 229 231 232 233 230 234 245 262 276 284 288 290 289 290 292 300 292 290 290 292 294 297 300 303 304 302 298 292 287 284 283 284 290 297 302 303 302 299 296 295 294
175 175 176 178 177 176 176 176 178 179 180 181 183 185 189 193 197 200 202 203 202 203 204 206 211 219 228 232 232 232 233 235 242 249 259 268 278 283 286 287 284 283 285 322 295 292 293 295 299 302 304 305 303 299 293 285 281 278 280 285 292 296 298 297 295 293 292 292 291
179 180 180 182 181 180 179 180 182 183 184 185 186 189 192 196 199 201 203 204 204 207 209 211 216 224 231 235 235 237 241 249 259 268 273 276 279 282 285 285 285 286 294 295 288 290 294 298 303 306 308 309 304 295 287 280 276 276 279 286 290 291 291 290 289 287 286 285 283
183 183 185 186 185 184 183 184 185 186 187 188 190 191 194 197 200 203 203 203 205 208 212 217 222 228 235 242 248 256 265 273 275 275 276 278 282 285 286 285 279 266 245 244 273 287 295 301 306 309 311 310 303 294 288 284 282 282 284 286 286 287 287 286 282 279 276 273 271
186 187 188 190 190 189 188 187 187 188 189 191 192 193 195 198 202 204 204 203 205 209 214 220 225 231 238 245 254 260 263 262 263 267 274 282 287 287 286 283 275 255 228 232 267 288 299 305 308 310 311 308 301 293 289 288 287 286 285 284 285 286 285 282 277 273 269 266 265
189 189 190 192 193 192 191 189 189 189 191 194 194 195 196 199 203 205 206 204 207 212 217 222 226 230 234 238 241 243 246 249 257 266 278 286 288 288 287 286 284 274 255 241 270 289 300 306 309 310 309 305 298 292 288 286 284 282 280 280 283 284 284 280 276 272 269 268 267
191 191 192 193 195 194 193 191 190 191 193 195 195 196 198 201 204 205 206 206 209 214 219 223 226 229 232 234 235 238 242 251 265 276 283 286 286 287 288 289 290 288 281 261 272 288 298 304 308 309 308 302 296 291 288 284 282 281 281 283 284 284 283 279 277 275 273 272 270
191 192 193 195 196 196 194 192 192 192 193 195 196 197 199 201 204 206 206 207 211 217 221 225 228 229 231 233 236 242 250 262 270 275 278 280 282 285 289 292 293 291 288 273 274 285 294 300 303 304 303 298 294 290 288 285 285 286 288 290 290 290 290 287 283 281 278 276 272
191 193 194 196 197 197 196 194 193 193 194 195 196 197 199 200 203 203 203 204 211 218 225 229 230 230 229 230 235 244 255 263 267 270 272 274 277 282 286 290 290 288 284 275 275 281 288 293 296 298 298 294 291 289 287 287 287 289 292 298 302 302 299 295 291 287 283 281 278
191 193 194 196 197 197 197 195 194 193 193 194 197 198 200 200 201 200 198 199 209 218 227 233 234 232 228 226 236 248 258 266 269 271 273 275 276 277 278 279 280 279 277 273 271 273 278 284 289 292 294 293 292 291 290 290 288 289 292 299 302 300 297 293 291 289 290 293 294
190 192 193 196 197 197 197 196 194 192 192 194 197 199 200 200 198 195 193 196 205 215 225 233 235 233 228 224 237 251 261 268 272 275 278 280 279 274 269 266 268 269 270 267 265 267 272 279 284 288 290 291 292 292 291 289 286 286 288 291 289 287 286 287 288 292 300 315 320